OneWeb SL0687

operational
NORAD ID: 61595 Int'l Des: 2024-188 Owner: ONEWEBE Country: UK Constellation: oneweb
LEOCIRCULARPOLARONEWEB_TYPE

About OneWeb SL0687

Description loading...

Live Position

Loading 3D Globe...

Upcoming Passes

Altitude History

Altitude vs Time

uPlot chart will show altitude changes over time

Two-Line Element Set

1 61595U 24188B 25299.04363949 .00000005 00000-0 -20770-4 0 9990
2 61595 87.9106 52.4639 0001693 79.6415 280.4908 13.17649889 55062
Epoch: Oct 26, 2025 • Age: 11 hours

Current Status

Altitude 1202.0 km
Velocity 7.25 km/s
Sub-Earth Point -21.43°S, 161.66°W
Launch Date Oct 20, 2024
Age 1 years
Type internet

Technical Details

Classification Payload
Mass 148.00 kg
Dry Mass 140.00 kg
Total Mass 148.00 kg
Length 1.30 m
Diameter 1.00 m
Span 5.00 m
Shape Trapezoid+2 pan
Manufacturer ONEWUS
Bus Type ARROW
Phase Status In Orbit
Owner/State ONEWEBE/UK

Large Constellations

Loading constellations...